Regional Weather Roundup
Issued by NWS Huntsville, AL

Current Version | Previous Version | Text Only | Print | Product List | Glossary On
Versions: 1 2 3 4 5 6 7 8 9 10 11 12 13 14 15 16 17 18 19 20 21 22 23 24 25 26 27
000
ASUS44 KHUN 171310
RWRHUN

WEATHER ROUNDUP FOR THE TENNESSEE VALLEY
NATIONAL WEATHER SERVICE HUNTSVILLE AL
800 AM CDT THU AUG 17 2017

ALZ001>004-171400-
NORTHWEST ALABAMA

CITY           SKY/WX    TMP DP  RH WIND       PRES   REMARKS
COURTLAND HCN    N/A     75 N/A N/A S3          N/A
RUSSELLVILLE     N/A     73 N/A N/A MISG        N/A
SHOALS AIRPORT PTSUNNY   77  72  84 S5        30.07R
SHOALS TVA RES   N/A     75 N/A N/A MISG        N/A
$$

ALZ005>007-016-171400-
NORTH CENTRAL ALABAMA

CITY           SKY/WX    TMP DP  RH WIND       PRES   REMARKS
CULLMAN AG STN   N/A     75 N/A N/A CALM        N/A
DECATUR AP     SUNNY     77  74  90 SW7       30.07R
HUNTSVILLE AP  MOSUNNY   77  75  93 SW6       30.08R
MERIDIANVILLE  MOSUNNY   75  72  88 CALM      30.08S
REDSTONE ARSN  PTSUNNY   76  74  94 S6        30.07R
VINEMONT AP    FAIR      76  71  82 SW6       30.12R
$$

ALZ008>010-171400-
NORTHEAST ALABAMA

CITY           SKY/WX    TMP DP  RH WIND       PRES   REMARKS
ALBERTVILLE    CLOUDY    73  73 100 SW5       30.11S
FORT PAYNE     PTSUNNY   72  70  94 CALM      30.10R
SCOTTSBORO AP  MOSUNNY   79  75  89 SW8       30.09S
SCOTTSBORO HCN   N/A     75 N/A N/A MISG        N/A
$$

TNZ076-096-097-171400-
SOUTHEASTERN MIDDLE TENNESSEE

CITY           SKY/WX    TMP DP  RH WIND       PRES   REMARKS
TULLAHOMA      MOSUNNY   75  72  88 S5        30.09S
WINCHESTER     SUNNY     77  73  88 SE3       30.09S
$$

...SURROUNDING SITES...

CITY           SKY/WX    TMP DP  RH WIND       PRES   REMARKS
ATLANTA        MOSUNNY   80  74  81 NW12      30.11R
ANNISTON       PTSUNNY   78  75  90 W7        30.12R
BIRMINGHAM     MOSUNNY   79  71  76 SW8       30.13R
CHATTANOOGA    MOSUNNY   80  73  79 S3        30.09R
DALTON         NOT AVBL
GADSDEN        SUNNY     77  74  90 CALM      30.11R
GOLDEN TRNGL   SUNNY     75  68  78 S7        30.03R
HALEYVILLE     CLOUDY    74  73  97 SW7       30.11R
JACKSON TN     CLOUDY    76  76 100 SW9       30.01R FOG
MEMPHIS        CLOUDY    79  75  87 SW7       30.01R
NASHVILLE      MOSUNNY   79  73  82 S5        30.04R
OXFORD MS        N/A    N/A N/A N/A MISG        N/A
ROME           SUNNY     80  76  87 CALM      30.09R
SAVANNAH       CLOUDY    77  73  88 SW9       30.03R
SELMER         CLOUDY    75  73  94 SW8G15    30.03R
TUPELO         CLOUDY    75  71  87 SE6       30.05R
TUSCALOOSA     MOSUNNY   75  74  96 S5        30.09S
$$

...GULF COAST WEATHER...

CITY           SKY/WX    TMP DP  RH WIND       PRES   REMARKS
GULFPORT       SUNNY     81  77  88 CALM      30.08S
PASCAGOULA     SUNNY     82  76  81 NW3       30.09R
MOBILE         MOSUNNY   79  76  90 W3        30.11R
GULF SHORES    PTSUNNY   80  80 100 CALM      30.10R
PENSACOLA      MOSUNNY   83  79  88 CALM      30.09S HX  94
DESTIN         SUNNY     87  76  69 NW8       30.10R HX  97
PANAMA CITY    SUNNY     84  79  85 N5        30.10R HX  95
APPALACHICOLA  SUNNY     85  80  85 CALM      30.10R HX  99
$$





USA.gov is the U.S. government's official web portal to all federal, state and local government web resources and services.